User: anonymous   Login
Location: W�rzburg
(49.7529°N, 9.8822°E)
Time: 08:41:46
(UTC+01:00)
Language:

ISS - Orbit

View from above orbital plane
View from above orbital plane
View from above satellite
View from above satellite

Ground track
Ground track

The orbit data is extracted from the following two-line orbital elements,

1 25544U 98067A   18349.17147849  .00016717  00000-0  10270-3 0  9036
2 25544  51.6367 196.7957 0004871 145.5805 214.5664 15.54052381 26653
Epoch (UTC): 15 December 2018 04:06:55
Eccentricity: 0.0004871
inclination: 51.6367°
perigee height: 401 km
apogee height: 408 km
right ascension of ascending node: 196.7957°
argument of perigee: 145.5805°
revolutions per day: 15.54052381
mean anomaly at epoch: 214.5664°
orbit number at epoch: 2665

The dashed part of the orbit path shows where the satellite is in the earth's shadow,  

DLR